Location: Newark
(51.0500°N, 12.4500°E)
Time: 15:36:55
(UTC+00:00)

Explorer 7 - Pass Details

Date: 20 February 2020
Orbit: 485 x 679 km, 50.3° (Epoch: 04 April)

Event Time Altitude Azimuth Distance (km) Brightness Sun altitude
Rises 18:02:07 0° 281° (WNW) 2,721 12.1 -14.5°
Reaches altitude 10° 18:04:58 10° 262° (W) 1,785 10.8 -14.9°
Maximum altitude 18:07:41 18° 220° (SW) 1,339 9.3 -15.3°
Drops below altitude 10° 18:10:18 10° 177° (S) 1,715 9.3 -15.7°
Enters shadow 18:12:08 - 162° (SSE) 2,278 9.8 -16.0°
